When you browse on this site, cookies collect data to enhance your experience and personalize the content and advertising you see.
Visit our Privacy Policy to learn more. By continuing to use the site, you agree to this use of cookies and data.
  • In Netherlands
  • List of Countries
  • For 7 days
  • Water Temperature
  • Weather Map
  • Weather Widgets
  • user-avatar
    Login

    Hourly Weather Oruro

    Today, 18 August, Sunday

    Time Temperature Precipitation Wind Pressure Humidity
    00:00 +7°C° 0 mm 1 mps 475 mmHg 22%
    01:00 +6°C° 0 mm 1 mps 474 mmHg 23%
    02:00 +5°C° 0 mm 1 mps 474 mmHg 29%
    03:00 +5°C° 0 mm 1 mps 473 mmHg 29%
    04:00 +4°C° 0 mm 1 mps 472 mmHg 28%
    05:00 +3°C° 0 mm 1 mps 472 mmHg 28%
    06:00 +4°C° 0 mm 1 mps 473 mmHg 26%
    07:00 +5°C° 0 mm 1 mps 474 mmHg 23%
    08:00 +6°C° 0 mm 1 mps 476 mmHg 21%
    09:00 +9°C° 0 mm 1 mps 477 mmHg 17%
    10:00 +11°C° 0 mm 1 mps 478 mmHg 14%
    11:00 +13°C° 0 mm 2 mps 479 mmHg 10%
    12:00 +14°C° 0 mm 2 mps 479 mmHg 9%
    13:00 +15°C° 0 mm 2 mps 480 mmHg 8%
    14:00 +16°C° 0 mm 2 mps 480 mmHg 7%
    15:00 +16°C° 0 mm 2 mps 479 mmHg 7%
    16:00 +16°C° 0 mm 2 mps 479 mmHg 8%
    17:00 +16°C° 0 mm 2 mps 479 mmHg 8%
    18:00 +14°C° 0 mm 2 mps 478 mmHg 12%
    19:00 +11°C° 0 mm 3 mps 478 mmHg 16%
    20:00 +10°C° 0 mm 3 mps 477 mmHg 20%
    21:00 +9°C° 0 mm 2 mps 477 mmHg 32%
    22:00 +8°C° 0 mm 2 mps 477 mmHg 44%
    23:00 +7°C° 0 mm 2 mps 476 mmHg 55%

    Tomorrow, 19 August, Monday

    Time Temperature Precipitation Wind Pressure Humidity
    00:00 +6°C° 0 mm 2 mps 476 mmHg 62%
    01:00 +6°C° 0 mm 2 mps 475 mmHg 68%
    02:00 +5°C° 0 mm 2 mps 475 mmHg 75%
    03:00 +4°C° 0 mm 2 mps 474 mmHg 78%
    04:00 +5°C° 0 mm 1 mps 474 mmHg 82%
    05:00 +4°C° 0 mm 1 mps 473 mmHg 85%
    06:00 +5°C° 0 mm 1 mps 474 mmHg 81%
    07:00 +5°C° 0 mm 1 mps 475 mmHg 76%
    08:00 +6°C° 0 mm 1 mps 476 mmHg 72%
    09:00 +8°C° 0 mm 1 mps 477 mmHg 63%
    10:00 +9°C° 0 mm 1 mps 478 mmHg 53%
    11:00 +11°C° 0 mm 1 mps 479 mmHg 44%
    12:00 +12°C° 0 mm 2 mps 479 mmHg 37%
    13:00 +14°C° 0 mm 2 mps 479 mmHg 30%
    14:00 +15°C° 0 mm 2 mps 479 mmHg 24%
    15:00 +14°C° 0 mm 3 mps 479 mmHg 22%
    16:00 +14°C° 0 mm 3 mps 479 mmHg 20%
    17:00 +14°C° 0 mm 4 mps 479 mmHg 18%
    18:00 +13°C° 0 mm 3 mps 478 mmHg 19%
    19:00 +11°C° 0 mm 3 mps 478 mmHg 21%
    20:00 +10°C° 0 mm 3 mps 477 mmHg 22%
    21:00 +9°C° 0 mm 3 mps 477 mmHg 27%
    22:00 +8°C° 0 mm 2 mps 477 mmHg 33%
    23:00 +8°C° 0 mm 1 mps 476 mmHg 39%

    Day after tomorrow, 20 August, Tuesday

    Time Temperature Precipitation Wind Pressure Humidity
    00:00 +6°C° 0 mm 2 mps 476 mmHg 49%
    01:00 +5°C° 0 mm 2 mps 475 mmHg 59%
    02:00 +5°C° 0 mm 2 mps 474 mmHg 69%
    03:00 +4°C° 0 mm 2 mps 474 mmHg 74%
    04:00 +4°C° 0 mm 2 mps 474 mmHg 80%
    05:00 +4°C° 0 mm 1 mps 473 mmHg 86%
    06:00 +5°C° 0 mm 1 mps 474 mmHg 81%
    07:00 +4°C° 0 mm 2 mps 475 mmHg 77%
    08:00 +5°C° 0 mm 2 mps 476 mmHg 73%
    09:00 +7°C° 0 mm 2 mps 477 mmHg 61%
    10:00 +9°C° 0 mm 2 mps 479 mmHg 49%
    11:00 +12°C° 0 mm 2 mps 480 mmHg 37%
    12:00 +13°C° 0 mm 2 mps 480 mmHg 31%
    13:00 +14°C° 0 mm 3 mps 480 mmHg 24%
    14:00 +16°C° 0 mm 3 mps 481 mmHg 18%
    15:00 +16°C° 0 mm 3 mps 480 mmHg 17%
    16:00 +16°C° 0 mm 3 mps 480 mmHg 17%
    17:00 +16°C° 0 mm 2 mps 480 mmHg 16%
    18:00 +13°C° 0 mm 3 mps 479 mmHg 24%
    19:00 +11°C° 0 mm 3 mps 478 mmHg 32%
    20:00 +10°C° 0 mm 4 mps 478 mmHg 39%
    21:00 +8°C° 0 mm 4 mps 477 mmHg 47%
    22:00 +8°C° 0 mm 3 mps 477 mmHg 55%
    23:00 +7°C° 0 mm 3 mps 477 mmHg 63%

    21 August, Wednesday

    Time Temperature Precipitation Wind Pressure Humidity
    00:00 +5°C° 0 mm 3 mps 476 mmHg 68%
    01:00 +5°C° 0 mm 3 mps 476 mmHg 73%
    02:00 +5°C° 0 mm 2 mps 475 mmHg 78%
    03:00 +4°C° 0 mm 2 mps 475 mmHg 80%
    04:00 +4°C° 0 mm 2 mps 475 mmHg 82%
    05:00 +3°C° 0 mm 2 mps 474 mmHg 84%
    06:00 +4°C° 0 mm 2 mps 475 mmHg 79%
    07:00 +4°C° 0 mm 2 mps 476 mmHg 75%
    08:00 +5°C° 0 mm 2 mps 477 mmHg 70%
    09:00 +7°C° 0 mm 2 mps 478 mmHg 60%
    10:00 +9°C° 0 mm 2 mps 479 mmHg 51%
    11:00 +11°C° 0 mm 3 mps 481 mmHg 41%
    12:00 +12°C° 0 mm 3 mps 481 mmHg 35%
    13:00 +13°C° 0 mm 3 mps 481 mmHg 29%
    14:00 +16°C° 0 mm 3 mps 481 mmHg 23%
    15:00 +16°C° 0 mm 2 mps 481 mmHg 23%
    16:00 +15°C° 0 mm 2 mps 480 mmHg 23%
    17:00 +15°C° 0 mm 2 mps 480 mmHg 24%
    18:00 +13°C° 0 mm 3 mps 479 mmHg 33%
    19:00 +11°C° 0 mm 4 mps 479 mmHg 43%
    20:00 +8°C° 0 mm 4 mps 478 mmHg 52%
    21:00 +8°C° 0 mm 4 mps 478 mmHg 57%
    22:00 +8°C° 0 mm 3 mps 478 mmHg 61%
    23:00 +7°C° 0 mm 2 mps 477 mmHg 66%

    22 August, Thursday

    Time Temperature Precipitation Wind Pressure Humidity
    00:00 +6°C° 0 mm 2 mps 477 mmHg 70%
    01:00 +6°C° 0 mm 2 mps 476 mmHg 74%
    02:00 +4°C° 0 mm 3 mps 476 mmHg 78%
    03:00 +4°C° 0 mm 2 mps 475 mmHg 81%
    04:00 +4°C° 0 mm 2 mps 475 mmHg 83%
    05:00 +4°C° 0 mm 1 mps 475 mmHg 85%
    06:00 +5°C° 0 mm 1 mps 476 mmHg 80%
    07:00 +6°C° 0 mm 1 mps 477 mmHg 74%
    08:00 +7°C° 0 mm 1 mps 478 mmHg 69%
    09:00 +9°C° 0 mm 1 mps 479 mmHg 59%
    10:00 +10°C° 0 mm 1 mps 480 mmHg 50%
    11:00 +12°C° 0 mm 1 mps 481 mmHg 40%
    12:00 +14°C° 0 mm 1 mps 481 mmHg 34%
    13:00 +15°C° 0 mm 1 mps 481 mmHg 29%
    14:00 +16°C° 0 mm 1 mps 481 mmHg 23%
    15:00 +15°C° 0 mm 2 mps 481 mmHg 27%
    16:00 +14°C° 0 mm 3 mps 480 mmHg 30%
    17:00 +13°C° 0 mm 5 mps 479 mmHg 34%
    18:00 +12°C° 0.2 mm 4 mps 479 mmHg 39%
    19:00 +10°C° 0.2 mm 4 mps 479 mmHg 45%
    20:00 +9°C° 0.2 mm 3 mps 479 mmHg 50%
    21:00 +7°C° 0 mm 4 mps 478 mmHg 55%
    22:00 +7°C° 0 mm 4 mps 478 mmHg 60%
    23:00 +6°C° 0 mm 4 mps 478 mmHg 66%

    23 August, Friday

    Time Temperature Precipitation Wind Pressure Humidity
    00:00 +5°C° 0 mm 3 mps 477 mmHg 71%
    01:00 +4°C° 0 mm 3 mps 477 mmHg 76%
    02:00 +3°C° 0 mm 3 mps 476 mmHg 80%
    03:00 +3°C° 0 mm 3 mps 476 mmHg 82%
    04:00 +3°C° 0 mm 2 mps 475 mmHg 83%
    05:00 +3°C° 0 mm 2 mps 475 mmHg 84%
    06:00 +3°C° 0 mm 2 mps 476 mmHg 79%
    07:00 +4°C° 0 mm 2 mps 477 mmHg 73%
    08:00 +5°C° 0 mm 2 mps 478 mmHg 68%
    09:00 +7°C° 0 mm 3 mps 479 mmHg 58%
    10:00 +8°C° 0 mm 3 mps 480 mmHg 48%
    11:00 +10°C° 0 mm 4 mps 481 mmHg 38%
    12:00 +11°C° 0 mm 4 mps 481 mmHg 34%
    13:00 +12°C° 0 mm 5 mps 482 mmHg 30%
    14:00 +14°C° 0 mm 5 mps 482 mmHg 27%
    15:00 +13°C° 0 mm 6 mps 481 mmHg 28%
    16:00 +13°C° 0 mm 6 mps 480 mmHg 29%
    17:00 +11°C° 0 mm 7 mps 480 mmHg 30%
    18:00 +10°C° 0 mm 6 mps 479 mmHg 38%
    19:00 +8°C° 0 mm 6 mps 478 mmHg 46%
    20:00 +7°C° 0 mm 5 mps 478 mmHg 53%
    21:00 +6°C° 0 mm 5 mps 477 mmHg 57%
    22:00 +5°C° 0 mm 4 mps 477 mmHg 62%
    23:00 +4°C° 0 mm 3 mps 477 mmHg 66%
    Show more